Flag for Greece Weather past 2 weeks in Iráklion, Crete, Greece

Now
81 °F

Passing clouds.


Feels Like: 84 °F
Forecast: 72 / 85 °F
Wind: 16 mph from Northwest

Location: Heraklion Airport

Current Time: Jul 24, 2014 at 6:30:02 PM

Latest Report: Jul 24, 2014 at 5:50 PM


Visibility: N/A

Pressure: 29.77 "Hg

Humidity: 70%

Dew point: 70 °F

Location of IráklionLocation

Historic Weather in Iráklion — Graph

°F

Iráklion temperature yesterday

Maximum temperature yesterday: 84 °F (at 3:50 PM)
Minimum temperature yesterday: 72 °F (at 5:50 AM)
Average temperature yesterday: 79 °F

Past Weeks' High & Low Weather Summary

 TemperatureHumidityPressure
High90 °F (Jul 22, 3:50 PM)94% (Jul 18, 3:50 AM)29.92 "Hg (Jul 18, 3:50 AM)
Low68 °F (Jul 13, 4:50 AM)40% (Jul 9, 11:50 PM)29.68 "Hg (Jul 11, 2:50 AM)
Average78 °F70%29.81 "Hg
* Reported Jul 9 4:20 PM — Jul 24 4:50 PM, Iráklion, Weather by CustomWeather, © 2014

Note: Actual official high and low records may vary slightly from our data, if they occured in-between our weather recording intervals... More about our weather records

Advertising

Iráklion weather history for previous 24 hours

 ConditionsComfort  
Time TempWeatherWind HumidityBarometerVisibility
4:50 PM
Jul 24
81 °FPassing clouds.18 mph70%29.77 "HgN/A
4:20 PM82 °FPassing clouds.20 mph70%29.77 "HgN/A
3:50 PM82 °FPassing clouds.18 mph70%29.77 "HgN/A
3:20 PM82 °FPassing clouds.20 mph70%29.77 "HgN/A
2:50 PM82 °FPassing clouds.20 mph70%29.77 "HgN/A
2:20 PM82 °FPassing clouds.20 mph66%29.77 "HgN/A
1:50 PM82 °FPassing clouds.22 mph66%29.77 "HgN/A
1:20 PM82 °FPassing clouds.21 mph66%29.77 "HgN/A
12:50 PM82 °FPassing clouds.22 mph66%29.77 "HgN/A
12:20 PM82 °FPassing clouds.20 mph62%29.77 "HgN/A
11:50 AM82 °FPassing clouds.20 mph62%29.77 "HgN/A
11:20 AM84 °FPassing clouds.20 mph55%29.77 "HgN/A
10:50 AM84 °FPassing clouds.20 mph55%29.77 "HgN/A
10:20 AM82 °FPassing clouds.20 mph58%29.77 "HgN/A
9:50 AM82 °FPassing clouds.20 mph58%29.77 "HgN/A
9:20 AM82 °FPassing clouds.10 mph58%29.77 "HgN/A
8:50 AM81 °FPassing clouds.6 mph66%29.74 "HgN/A
8:20 AM79 °FSunny.6 mph61%29.74 "Hg10 mi
7:50 AM73 °FPassing clouds.6 mph74%29.74 "HgN/A
7:20 AM73 °FClear.3 mph74%29.74 "Hg10 mi
6:20 AM73 °FPassing clouds.6 mph78%29.74 "HgN/A
5:50 AM73 °FPassing clouds.6 mph78%29.74 "HgN/A
5:20 AM72 °FPassing clouds.6 mph83%29.74 "HgN/A
4:50 AM72 °FPassing clouds.9 mph83%29.74 "HgN/A
3:50 AM72 °FPassing clouds.7 mph83%29.74 "HgN/A
2:50 AM73 °FPassing clouds.9 mph83%29.74 "HgN/A
1:50 AM73 °FPassing clouds.10 mph83%29.77 "HgN/A
1:20 AM75 °FPassing clouds.8 mph78%29.77 "HgN/A
12:50 AM75 °FPassing clouds.7 mph78%29.77 "HgN/A
12:20 AM75 °FPassing clouds.7 mph74%29.77 "HgN/A
11:50 PM
Jul 23
75 °FPassing clouds.7 mph74%29.77 "HgN/A
11:20 PM77 °FPassing clouds.5 mph79%29.77 "HgN/A
10:50 PM77 °FPassing clouds.5 mph79%29.77 "HgN/A
9:50 PM77 °FPassing clouds.5 mph79%29.77 "HgN/A
9:20 PM79 °FPassing clouds.3 mph79%29.77 "HgN/A
8:50 PM79 °FPassing clouds.5 mph79%29.77 "HgN/A
8:20 PM82 °FPassing clouds.5 mph74%29.77 "HgN/A
7:50 PM82 °FPassing clouds.5 mph74%29.77 "HgN/A
7:20 PM82 °FPassing clouds.5 mph74%29.77 "HgN/A
6:50 PM82 °FPassing clouds.7 mph74%29.77 "HgN/A
6:20 PM82 °FPassing clouds.8 mph70%29.77 "HgN/A
Weather by CustomWeather, © 2014

See weather overviewHow to use our weather pages